Regional Weather Roundup
Issued by NWS Charleston, WV

Home | Current Version | Previous Version | Graphics & Text | Print | Product List | Glossary On
Versions: 1 2 3 4 5 6 7 8 9 10 11 12 13 14 15 16 17 18 19 20 21 22 23 24 25 26 27 28 29 30 31 32 33 34 35 36 37 38 39 40 41 42 43 44 45 46 47 48 49 50
000
ASUS41 KRLX 210910
RWRRLX
West Virginia Regional Weather Roundup
National Weather Service Charleston WV
500 AM EDT SAT APR 21 2018

Note: "fair" indicates few or no clouds below 12,000 feet with no
significant weather and/or obstructions to visibility.

WVZ003-211000-
Northern Panhandle of West Virginia

CITY           SKY/WX    TMP DP  RH WIND       PRES   REMARKS
WHEELING       FAIR      34  19  54 CALM      30.43S
$$

WVZ009-211000-
Northwest West Virginia

CITY           SKY/WX    TMP DP  RH WIND       PRES   REMARKS
PARKERSBURG    FAIR      33  24  69 CALM      30.47R
$$

WVZ006-211000-
Western West Virginia

CITY           SKY/WX    TMP DP  RH WIND       PRES   REMARKS
HUNTINGTON     FAIR      41  25  53 NE6       30.41S
$$

WVZ015-211000-
West Central West Virginia

CITY           SKY/WX    TMP DP  RH WIND       PRES   REMARKS
CHARLESTON     FAIR      32  30  92 CALM      30.41R
$$

WVZ022-031-211000-
North Central West Virginia

CITY           SKY/WX    TMP DP  RH WIND       PRES   REMARKS
CLARKSBURG     FAIR      32  25  75 CALM      30.42S
MORGANTOWN     FAIR      31  27  85 CALM      30.44S
$$

WVZ025-035-042-045-211000-
Southern West Virginia

CITY           SKY/WX    TMP DP  RH WIND       PRES   REMARKS
BECKLEY        FAIR      33  21  61 CALM      30.37S
LOGAN          FAIR      39  23  52 CALM      30.37S
BLUEFIELD      FAIR      37  15  40 E3        30.37S
LEWISBURG      FAIR      30  24  76 CALM      30.39F
$$

WVZ047-211000-
Northern Mountains of West Virginia

CITY           SKY/WX    TMP DP  RH WIND       PRES   REMARKS
ELKINS         FAIR      25  22  88 CALM      30.41F
$$

WVZ052-211000-
Eastern Panhandle of West Virginia

CITY           SKY/WX    TMP DP  RH WIND       PRES   REMARKS
MARTINSBURG    FAIR      36  26  67 N3        30.44S
PETERSBURG     FAIR      28  26  89 CALM      30.45S
$$



USA.gov is the U.S. government's official web portal to all federal, state and local government web resources and services.